{"data":{"norad_id":61046,"epoch":"2026-05-24T03:33:51.480864Z","epoch_age_seconds":141862,"freshness":"FRESH","line1":"1 61046U 24163B   26144.14851251  .00018778  00000+0  85479-3 0  9993","line2":"2 61046  52.9731  59.9133 0009698  51.0989 309.0869 15.20713114 94104","mean_motion":15.20713114,"eccentricity":0.0009698,"inclination_deg":52.9731,"raan_deg":59.9133,"arg_perigee_deg":51.0989,"mean_anomaly_deg":309.0869,"bstar":0.00085479,"rev_number":9410,"period_min":94.692416784143,"perigee_km":497.01436408946,"apogee_km":510.36235255447,"semimajor_km":6881.825358322,"source":"CELESTRAK","updated_at":"2026-05-25T13:38:02.279616Z"}}